Change the Weather History Date:

Thursday, December 6, 2012

  Actual Average (KBJC) Record (KBJC)
Temperature  
Mean Temperature 39 °F -  
Max Temperature 50 °F 44 °F 65 °F (1991)
Min Temperature 28 °F 25 °F -5 °F (2013)
Degree Days  
Heating Degree Days 26    
Moisture  
Dew Point 29 °F    
Average Humidity 62    
Maximum Humidity 89    
Minimum Humidity 36    
Precipitation  
Precipitation 0.00 in - - ()
Sea Level Pressure  
Sea Level Pressure 29.93 in    
Wind  
Wind Speed 3 mph (ESE)    
Max Wind Speed 10 mph    
Max Gust Speed 16 mph    
Visibility 10 miles    
Events      
Averages and records for this station are not official NWS values.
T = Trace of Precipitation, MM = Missing Value Source: NWS Daily Summary

Daily Weather History Graph

Daily Weather History Graph

Search for Another Location

Airport or City:

Trip Planner

Search our weather history database for the weather conditions in past years. The results will help you decide how hot, cold, wet, or windy it might be!

Date:

Astronomy

Dec. 06, 2012 Rise Set
Actual Time 7:08 AM MST 4:34 PM MST
Civil Twilight 6:37 AM MST 5:05 PM MST
Nautical Twilight 6:04 AM MST 5:38 PM MST
Astronomical Twilight 5:31 AM MST 6:11 PM MST
Moon No Moon Rise 12:02 PM MST (12/6)
Length of Visible Light 10h 27m
Length of Day
9h 26m
Waning Gibbous, 48% of the Moon is Illuminated
Dec 6
Waning Gibbous
Dec 13
New
Dec 19
First Quarter
Dec 28
Full
Jan 4
Last Quarter

Hourly Weather History & Observations

Time (MST) Temp. Windchill Dew Point Humidity Pressure Visibility Wind Dir Wind Speed Gust Speed Precip Events Conditions
12:14 AM 46.2 °F - 25.9 °F 45% 29.88 in 10.0 mi Calm Calm - N/A   Clear
12:34 AM 50.9 °F - 24.8 °F 36% 29.89 in 10.0 mi ENE 4.6 mph - N/A   Clear
12:54 AM 50.7 °F - 25.5 °F 38% 29.89 in 10.0 mi Calm Calm - N/A   Clear
1:14 AM 49.8 °F - 25.7 °F 39% 29.89 in 10.0 mi WNW 8.1 mph - N/A   Clear
1:34 AM 50.0 °F - 26.2 °F 40% 29.90 in 10.0 mi NNE 4.6 mph - N/A   Clear
1:54 AM 48.9 °F - 26.6 °F 42% 29.91 in 10.0 mi ENE 5.8 mph - N/A   Scattered Clouds
2:14 AM 48.0 °F - 26.4 °F 43% 29.91 in 10.0 mi Calm Calm - N/A   Clear
2:34 AM 47.7 °F - 27.0 °F 45% 29.92 in 10.0 mi East 6.9 mph - N/A   Clear
2:54 AM 45.7 °F - 27.1 °F 48% 29.92 in 10.0 mi Calm Calm - N/A   Clear
3:14 AM 44.6 °F - 27.1 °F 50% 29.90 in 10.0 mi Calm Calm - N/A   Clear
3:34 AM 42.6 °F - 27.3 °F 55% 29.91 in 10.0 mi Calm Calm - N/A   Clear
3:54 AM 43.0 °F 38.8 °F 27.3 °F 54% 29.91 in 10.0 mi SSE 6.9 mph - N/A   Clear
4:14 AM 43.9 °F 41.3 °F 27.1 °F 52% 29.92 in 10.0 mi East 4.6 mph - N/A   Clear
4:34 AM 43.0 °F 40.3 °F 27.0 °F 53% 29.92 in 10.0 mi ESE 4.6 mph - N/A   Clear
4:54 AM 44.6 °F - 27.0 °F 50% 29.94 in 10.0 mi Calm Calm - N/A   Scattered Clouds
5:14 AM 42.8 °F - 27.1 °F 54% 29.94 in 10.0 mi Calm Calm - N/A   Scattered Clouds
5:34 AM 42.8 °F - 28.4 °F 57% 29.96 in 10.0 mi Calm Calm - N/A   Scattered Clouds
5:54 AM 45.5 °F 43.2 °F 27.9 °F 50% 29.96 in 10.0 mi East 4.6 mph - N/A   Mostly Cloudy
6:14 AM 44.1 °F 41.5 °F 28.0 °F 53% 29.97 in 10.0 mi East 4.6 mph - N/A   Mostly Cloudy
6:34 AM 43.7 °F 41.1 °F 28.4 °F 55% 29.98 in 10.0 mi SE 4.6 mph - N/A   Scattered Clouds
6:54 AM 43.3 °F 39.9 °F 29.8 °F 59% 29.99 in 10.0 mi East 5.8 mph - N/A   Scattered Clouds
7:14 AM 43.7 °F 38.6 °F 30.2 °F 59% 30.00 in 10.0 mi East 9.2 mph - N/A   Scattered Clouds
7:34 AM 44.8 °F 41.6 °F 29.7 °F 55% 30.01 in 10.0 mi East 5.8 mph - N/A   Mostly Cloudy
7:54 AM 44.6 °F 40.2 °F 29.8 °F 56% 30.04 in 10.0 mi SE 8.1 mph - N/A   Mostly Cloudy
8:14 AM 44.6 °F - 30.2 °F 57% 30.04 in 10.0 mi Calm Calm - N/A   Scattered Clouds
8:34 AM 44.2 °F 42.7 °F 30.4 °F 58% 30.05 in 10.0 mi East 3.5 mph - N/A   Clear
8:54 AM 44.1 °F - 30.4 °F 59% 30.05 in 10.0 mi Calm Calm - N/A   Scattered Clouds
9:14 AM 44.8 °F - 30.7 °F 58% 30.05 in 10.0 mi Calm Calm - N/A   Mostly Cloudy
9:34 AM 44.8 °F - 30.6 °F 57% 30.05 in 10.0 mi Calm Calm - N/A   Overcast
9:54 AM 45.0 °F 42.6 °F 31.8 °F 60% 30.05 in 10.0 mi NE 4.6 mph - N/A   Overcast
10:14 AM 44.4 °F 40.0 °F 33.3 °F 65% 30.05 in 10.0 mi East 8.1 mph - N/A   Overcast
10:34 AM 45.1 °F 41.4 °F 34.3 °F 66% 30.05 in 10.0 mi East 6.9 mph - N/A   Mostly Cloudy
10:54 AM 45.7 °F 41.0 °F 34.2 °F 64% 30.03 in 10.0 mi ESE 9.2 mph - N/A   Mostly Cloudy
11:14 AM 47.7 °F - 33.4 °F 58% 30.02 in 10.0 mi East 6.9 mph - N/A   Scattered Clouds
11:34 AM 45.7 °F 43.4 °F 33.3 °F 62% 30.00 in 10.0 mi East 4.6 mph - N/A   Mostly Cloudy
11:54 AM 46.6 °F - 33.3 °F 60% 29.99 in 10.0 mi SE 6.9 mph - N/A   Mostly Cloudy
12:14 PM 46.6 °F - 32.9 °F 59% 29.98 in 10.0 mi SSE 5.8 mph - N/A   Mostly Cloudy
12:34 PM 47.5 °F - 33.4 °F 58% 29.97 in 10.0 mi ESE 10.4 mph - N/A   Mostly Cloudy
12:54 PM 48.4 °F - 32.9 °F 55% 29.96 in 10.0 mi East 8.1 mph 16.1 mph N/A   Overcast
1:14 PM 48.4 °F - 32.5 °F 54% 29.94 in 10.0 mi ESE 6.9 mph - N/A   Overcast
1:34 PM 48.6 °F - 32.2 °F 53% 29.93 in 10.0 mi SE 8.1 mph - N/A   Scattered Clouds
1:40 PM 49.1 °F - 32.2 °F 52% 29.93 in 10.0 mi SSE 6.9 mph - N/A   Clear
2:54 PM 49.3 °F - 32.0 °F 51% 29.90 in 10.0 mi SE 5.8 mph - N/A   Clear
3:14 PM 49.5 °F - 32.0 °F 51% 29.89 in 10.0 mi SE 9.2 mph - N/A   Clear
3:34 PM 48.7 °F - 32.0 °F 52% 29.89 in 10.0 mi SE 5.8 mph - N/A   Clear
3:54 PM 48.4 °F - 31.8 °F 53% 29.89 in 10.0 mi Calm Calm - N/A   Clear
4:14 PM 46.9 °F - 31.5 °F 55% 29.89 in 10.0 mi East 3.5 mph - N/A   Clear
4:34 PM 44.2 °F 42.7 °F 31.1 °F 60% 29.89 in 10.0 mi ENE 3.5 mph - N/A   Clear
4:54 PM 41.9 °F 39.0 °F 30.2 °F 63% 29.90 in 10.0 mi NE 4.6 mph - N/A   Clear
5:14 PM 37.9 °F - 29.5 °F 72% 29.89 in 10.0 mi Calm Calm - N/A   Clear
5:34 PM 38.5 °F 35.0 °F 28.8 °F 68% 29.89 in 10.0 mi NE 4.6 mph - N/A   Clear
5:54 PM 36.5 °F - 27.7 °F 70% 29.89 in 10.0 mi Calm Calm - N/A   Clear
6:14 PM 36.0 °F - 27.3 °F 71% 29.89 in 10.0 mi Calm Calm - N/A   Clear
6:34 PM 35.4 °F - 26.6 °F 70% 29.89 in 10.0 mi Calm Calm - N/A   Clear
6:54 PM 33.1 °F 28.7 °F 26.2 °F 76% 29.89 in 10.0 mi West 4.6 mph - N/A   Clear
7:34 PM 30.9 °F - 27.1 °F 86% 29.88 in 10.0 mi Calm Calm - N/A   Clear
7:54 PM 30.9 °F - 26.6 °F 84% 29.89 in 10.0 mi Calm Calm - N/A   Clear
8:14 PM 30.9 °F - 26.6 °F 84% 29.88 in 10.0 mi Calm Calm - N/A   Clear
8:34 PM 30.4 °F - 26.4 °F 85% 29.88 in 10.0 mi Calm Calm - N/A   Clear
8:54 PM 30.2 °F 25.4 °F 26.4 °F 86% 29.88 in 10.0 mi WNW 4.6 mph - N/A   Clear
9:14 PM 31.1 °F 27.7 °F 26.8 °F 84% 29.89 in 10.0 mi West 3.5 mph - N/A   Clear
9:34 PM 31.5 °F - 27.0 °F 83% 29.88 in 10.0 mi Calm Calm - N/A   Clear
9:54 PM 30.2 °F - 26.2 °F 85% 29.88 in 10.0 mi Calm Calm - N/A   Clear
10:14 PM 30.7 °F - 26.8 °F 85% 29.88 in 10.0 mi Calm Calm - N/A   Clear
10:34 PM 30.7 °F - 26.6 °F 85% 29.88 in 10.0 mi Calm Calm - N/A   Clear
10:54 PM 30.2 °F - 27.0 °F 88% 29.88 in 10.0 mi Calm Calm - N/A   Clear
11:14 PM 28.4 °F - 25.2 °F 88% 29.88 in 10.0 mi Calm Calm - N/A   Clear
11:34 PM 28.4 °F 23.3 °F 25.3 °F 88% 29.87 in 10.0 mi SW 4.6 mph - N/A   Clear
11:54 PM 28.0 °F - 25.2 °F 89% 29.86 in 10.0 mi Calm Calm - N/A   Clear